Location: Les Coudrans
(46.1056°N, 1.1158°W)
Time: 07:29:51
(UTC+00:00)

Cosmos 2084 Rocket - Pass Details

Date: 03 March 2021
Orbit: 527 x 653 km, 62.8° (Epoch: 18 April)

Event Time Altitude Azimuth Distance (km) Brightness Sun altitude
Rises 18:22:40 0° 323° (NW) 2,796 7.4 -5.8°
Reaches altitude 10° 18:24:56 10° 328° (NNW) 1,915 6.5 -6.2°
Maximum altitude 18:29:09 51° 45° (NE) 766 3.8 -6.9°
Drops below altitude 10° 18:33:32 10° 122° (ESE) 1,982 5.7 -7.7°
Enters shadow 18:34:52 - 125° (SE) 2,497 6.2 -7.9°
